COSMOS 2514 (751)

Last updated on Tue Sep 16 2025 00:03:19 GMT+0000 (Coordinated Universal Time)

1 41330U 16008A 25258.29865997 -.00000056 00000+0 00000+0 0 9993 2 41330 65.1814 322.4344 0013307 210.8972 149.0889 2.13102514 74765
UTC large
Height (km)
Speed (km/s)
/
Latitude / Longitude
Inclination (degrees)
Orbital Period (minutes)
Azimuth
Elevation
Range (km)
Doppler Factor

Next 0 passes for location: London (51.5072 / 0.1276)

Sorry there are no passes over London.